W2SRH Weather Reports


Display with metric or nautical units.
time (UTC)temp
F
wind
direction
speed
MPH
gust
MPH
rain 1hr
in
rain 24hr
in
rain mn
in
humidity
%
barometer
mb
20260506230904 69 222 2.0 5.0 0.00 0.06 0.06 69 999.0
20260506225904 68 230 1.0 6.0 0.00 0.06 0.06 69 998.9
20260506224907 69 175 0.0 1.0 0.00 0.06 0.06 70 998.9
20260506223905 69 244 0.0 4.0 0.00 0.06 0.06 69 998.8
20260506222905 68 269 1.0 5.0 0.00 0.06 0.06 70 999.0
20260506221904 69 205 1.0 4.0 0.00 0.06 0.06 69 999.0
20260506220907 70 253 2.0 9.0 0.00 0.06 0.06 66 998.8
20260506215906 69 263 3.0 11.0 0.00 0.06 0.06 69 998.8
20260506214905 68 250 3.0 10.0 0.00 0.06 0.06 71 998.9
20260506213904 68 246 2.0 11.0 0.00 0.06 0.06 71 998.8
20260506212904 69 256 6.0 13.0 0.00 0.06 0.06 69 998.7
20260506211904 68 266 3.0 9.0 0.00 0.06 0.06 70 998.8
20260506210904 68 257 3.0 10.0 0.00 0.06 0.06 70 998.7
20260506205904 68 278 5.0 13.0 0.00 0.06 0.06 70 998.4
20260506203904 67 258 4.0 10.0 0.00 0.06 0.06 71 998.3
20260506202904 67 258 3.0 12.0 0.00 0.06 0.06 72 998.4
20260506201904 67 235 4.0 13.0 0.00 0.06 0.06 72 998.5
20260506200904 66 231 3.0 12.0 0.00 0.06 0.06 73 998.7
20260506195904 66 280 4.0 15.0 0.00 0.06 0.06 74 998.7
20260506194905 65 242 2.0 5.0 0.00 0.06 0.06 75 998.8
20260506193905 65 255 4.0 10.0 0.00 0.06 0.06 75 998.9
20260506192908 65 249 2.0 11.0 0.00 0.06 0.06 75 999.1
20260506191905 65 267 3.0 13.0 0.00 0.06 0.06 75 999.0
20260506190904 65 242 3.0 9.0 0.00 0.06 0.06 75 999.1
20260506185905 65 255 4.0 18.0 0.00 0.06 0.06 75 999.1
20260506184905 64 278 2.0 12.0 0.00 0.06 0.06 75 999.2
20260506183905 64 239 1.0 8.0 0.00 0.06 0.06 75 999.4
20260506182904 65 232 4.0 20.0 0.00 0.06 0.06 74 999.4
20260506181904 65 253 3.0 10.0 0.00 0.06 0.06 75 999.4
20260506180906 64 249 2.0 10.0 0.00 0.06 0.06 75 999.4
20260506175904 64 210 1.0 8.0 0.00 0.06 0.06 77 999.5
20260506174904 64 235 3.0 12.0 0.00 0.06 0.06 77 999.7
20260506173904 64 230 3.0 11.0 0.00 0.06 0.06 76 999.8
20260506172903 65 177 2.0 9.0 0.00 0.06 0.06 77 999.7
20260506171904 65 196 2.0 8.0 0.01 0.06 0.06 79 999.6
20260506170903 65 186 1.0 4.0 0.03 0.06 0.06 80 999.8
20260506165904 65 174 1.0 4.0 0.03 0.06 0.06 81 999.7
20260506164905 64 186 0.0 4.0 0.05 0.06 0.06 81 999.8
20260506163905 64 185 1.0 4.0 0.04 0.05 0.05 83 1000.0
20260506162905 63 234 0.0 3.0 0.05 0.05 0.05 82 1000.7
20260506161905 63 240 1.0 4.0 0.04 0.04 0.04 79 1001.0
20260506160906 64 246 2.0 9.0 0.03 0.03 0.03 76 1001.2
20260506155905 64 159 0.0 8.0 0.02 0.02 0.02 75 1001.1
20260506154905 64 238 0.0 4.0 0.01 0.01 0.01 74 1001.2
20260506153905 65 271 2.0 5.0 0.00 0.00 0.00 72 1001.1
20260506152904 66 234 3.0 10.0 0.00 0.00 0.00 68 1001.1
20260506151905 68 217 2.0 11.0 0.00 0.00 0.00 63 1000.9
20260506150905 68 243 2.0 6.0 0.00 0.00 0.00 62 1000.9
20260506145905 68 234 2.0 6.0 0.00 0.00 0.00 62 1001.1
20260506144904 68 176 2.0 10.0 0.00 0.00 0.00 59 1001.2
20260506143904 68 184 1.0 6.0 0.00 0.00 0.00 59 1001.2
20260506142904 69 257 4.0 10.0 0.00 0.00 0.00 58 1001.1
20260506141904 69 255 1.0 10.0 0.00 0.00 0.00 58 1001.1
20260506140904 69 253 7.0 14.0 0.00 0.00 0.00 58 1001.0
20260506135905 68 205 1.0 9.0 0.00 0.00 0.00 60 1001.0
20260506134904 67 235 2.0 14.0 0.00 0.00 0.00 61 1001.0
20260506133904 67 234 3.0 9.0 0.00 0.00 0.00 62 1001.0
20260506132904 67 246 2.0 10.0 0.00 0.00 0.00 62 1001.3
20260506131905 67 208 3.0 11.0 0.00 0.00 0.00 62 1001.3
20260506130905 67 244 3.0 9.0 0.00 0.00 0.00 62 1001.3
20260506125905 67 268 1.0 8.0 0.00 0.00 0.00 63 1001.2
20260506124905 67 182 2.0 10.0 0.00 0.00 0.00 63 1001.2
20260506123904 67 202 3.0 8.0 0.00 0.00 0.00 63 1001.2
20260506122906 67 156 1.0 15.0 0.00 0.00 0.00 64 1001.0
20260506121905 66 207 2.0 14.0 0.00 0.00 0.00 65 1001.2
20260506120904 65 264 2.0 11.0 0.00 0.00 0.00 67 1001.1
20260506115904 65 183 3.0 8.0 0.00 0.00 0.00 67 1001.2
20260506114904 65 192 1.0 4.0 0.00 0.00 0.00 67 1001.2
20260506113904 65 236 1.0 6.0 0.00 0.00 0.00 68 1001.3
20260506113012 64 197 2.0 4.0 0.00 0.00 0.00 70 1001.4
20260506112904 65 256 2.0 6.0 0.00 0.00 0.00 68 1001.3
20260506111904 64 166 1.0 5.0 0.00 0.00 0.00 69 1001.4
20260506110904 64 230 2.0 10.0 0.00 0.00 0.00 69 1001.3
20260506105904 64 197 2.0 4.0 0.00 0.00 0.00 70 1001.4
20260506104904 65 151 1.0 5.0 0.00 0.00 0.00 69 1001.2
20260506103904 64 231 1.0 5.0 0.00 0.00 0.00 71 1001.1
20260506102904 63 212 1.0 4.0 0.00 0.00 0.00 73 1001.2
20260506101906 63 201 1.0 4.0 0.00 0.00 0.00 73 1001.1
20260506100904 63 173 1.0 4.0 0.00 0.00 0.00 73 1001.2
20260506095905 63 173 1.0 5.0 0.00 0.00 0.00 73 1001.1
20260506095420 64 186 1.0 4.0 0.00 0.00 0.00 72 1001.0
20260506094906 63 158 1.0 6.0 0.00 0.00 0.00 73 1001.1
20260506093904 63 156 1.0 6.0 0.00 0.00 0.00 72 1001.0
20260506092905 64 186 1.0 4.0 0.00 0.00 0.00 72 1001.0
20260506092221 64 206 2.0 6.0 0.00 0.00 0.00 71 1001.0
20260506091907 64 168 1.0 6.0 0.00 0.00 0.00 72 1001.0
20260506090905 64 177 1.0 5.0 0.00 0.00 0.00 71 1001.2
20260506085905 64 206 2.0 6.0 0.00 0.00 0.00 71 1001.0
20260506084905 64 215 1.0 6.0 0.00 0.00 0.00 71 1001.1
20260506083906 64 175 1.0 5.0 0.00 0.00 0.00 71 1001.1
20260506082904 64 134 1.0 5.0 0.00 0.00 0.00 71 1001.2
20260506081904 64 178 1.0 9.0 0.00 0.00 0.00 71 1001.2
20260506080905 64 202 1.0 6.0 0.00 0.00 0.00 71 1001.4
20260506072904 65 182 1.0 6.0 0.00 0.00 0.00 71 1001.4
20260506071904 65 156 1.0 4.0 0.00 0.00 0.00 70 1001.4
20260506071415 66 202 1.0 9.0 0.00 0.00 0.00 68 1001.5
20260506070904 65 139 0.0 6.0 0.00 0.00 0.00 69 1001.4
20260506061907 66 170 1.0 3.0 0.00 0.00 0.00 67 1001.6
20260506061005 67 283 1.0 5.0 0.00 0.00 0.00 64 1001.8
20260506060905 66 170 1.0 3.0 0.00 0.00 0.00 66 1001.6
20260506050904 67 199 1.0 4.0 0.00 0.00 0.00 63 1002.1
20260506044904 67 224 1.0 3.0 0.00 0.00 0.00 62 1002.1
20260506043904 67 195 1.0 4.0 0.00 0.00 0.00 61 1002.2
20260506042904 68 171 1.0 8.0 0.00 0.00 0.00 61 1002.2
20260506041904 68 171 1.0 3.0 0.00 0.00 0.00 60 1002.1
20260506040904 68 181 1.0 4.0 0.00 0.00 0.00 59 1002.1
20260506035904 68 208 1.0 4.0 0.00 0.00 0.00 58 1002.0
20260506034904 68 222 1.0 5.0 0.00 0.00 0.00 58 1001.9
20260506033905 69 194 2.0 10.0 0.00 0.00 0.00 57 1001.9
20260506032905 69 182 1.0 5.0 0.00 0.00 0.00 56 1002.0
20260506031905 69 191 1.0 5.0 0.00 0.00 0.00 56 1002.1
20260506030906 69 189 1.0 6.0 0.00 0.00 0.00 55 1002.0
20260506025904 69 191 1.0 5.0 0.00 0.00 0.00 54 1002.1
20260506024905 69 233 1.0 5.0 0.00 0.00 0.00 54 1002.0
20260506023905 70 246 2.0 12.0 0.00 0.00 0.00 53 1002.1
20260506022904 70 232 2.0 5.0 0.00 0.00 0.00 53 1002.1
20260506021905 70 160 0.0 3.0 0.00 0.00 0.00 53 1002.1
20260506020904 70 168 1.0 9.0 0.00 0.00 0.00 53 1002.0
20260506015904 70 171 1.0 5.0 0.00 0.00 0.00 53 1002.1
20260506014904 70 174 1.0 5.0 0.00 0.00 0.00 52 1001.9
20260506013904 71 254 2.0 5.0 0.00 0.00 0.00 52 1001.8
20260506012904 71 203 1.0 5.0 0.00 0.00 0.00 51 1001.9
20260506011906 71 214 1.0 10.0 0.00 0.00 0.00 49 1001.7
20260506010904 72 189 2.0 8.0 0.00 0.00 0.00 46 1001.6
20260506005904 73 208 1.0 5.0 0.00 0.00 0.00 44 1001.5
20260506004904 74 176 0.0 2.0 0.00 0.00 0.00 42 1001.4
20260506003909 74 207 1.0 5.0 0.00 0.00 0.00 41 1001.2
20260506002905 75 199 1.0 5.0 0.00 0.00 0.00 39 1001.1
20260506001906 76 180 1.0 6.0 0.00 0.00 0.00 37 1001.0
20260506000905 76 213 2.0 6.0 0.00 0.00 0.00 37 1000.9
20260505235905 76 232 1.0 11.0 0.00 0.00 0.00 37 1000.9
20260505234904 77 198 1.0 8.0 0.00 0.00 0.00 36 1000.7
20260505233905 77 200 2.0 4.0 0.00 0.00 0.00 36 1000.7
20260505232906 78 162 1.0 4.0 0.00 0.00 0.00 35 1000.6
20260505231905 78 269 2.0 11.0 0.00 0.00 0.00 35 1000.5